OBJECT F, 60750

Orbit data source: Space-Track

You're viewing an Uncataloged Satellite

Recently launched and/or uncataloged satellites may have evolving metadata. Metadata may include but not limited to: Owner, Maufacturer, Bus, Motor, and Mission.

OBJECT F, 60750 is a satellite owned by Xiamen Tianwei (CN) in SSO that was launched on Thu, 29 Aug 2024 UTC via a GUSHENXING 1 launch vehicle from the Yellow Sea Launch Area, China (YSLA). Unknown objects in Earth's orbit typically refer to objects detected orbiting the Earth but have not yet been identified or cataloged. These objects could be anything from previously untracked satellites, spent rocket stages, debris from satellite collisions, or even natural meteoroids temporarily captured by Earth's gravity.

Loading next visibility...
Identifier
60750, 2024-153F
Orbit
SSO
Last TLE update
8 hours ago
Origin
Flag of CNXIAMT (CN / PRC)
Manufacturer
Hangsheng
Mission
Operational Commercial Imaging
Bus & Motor
TFG, Unknown motor
Mass
~50 kg wet, ~50 kg dry
Launch date (UTC)
2024-08-29 (8 months ago)
Launch vehicle
GUSHENXING 1
Launch site
Yellow Sea Launch Area, China (YSLA)
Object type
Unknown
Shape & HBR
Box + 1 Pan, 5 m
Radar Cross Section
5.339 m², Medium (>0.1 m² and < 1m²)

Expand to show TLE details & history

TLE from 8 hours ago
0 OBJECT F
1 60750U 24153F   25109.54500262  .00025373  00000-0  10966-2 0  9998
2 60750  97.6255 234.0411 0015427 204.6472 155.4029 15.22353872 35364
Epoch: 2025-04-19T13:04Z
Definitive object data (Epoch: 2025-04-19T13:04:48.226Z)
Latitude
0.00006°
Longitude
-170.04651°
Altitude
511.481 km
Speed
7.603 km/s
True Right ascension
15h 36m 09s
True Declination
0° 00' 00"
Sunlit
Object was in full shadow at TLE epoch
Visualization TLE readout
Latitude
77.49958°
Longitude
153.3917°
Altitude
517.646 km
Speed
7.608 km/s
Apparent Right ascension
15h 30m 54s
Apparent Declination
23° 35' 27"
Sunlit
Object is in daylight
Visualization observer readout
Local Sidereal Time
04:11:32
Azimuth
10.341° NNE
Elevation
-25.79°
Doppler factor
1
Orbital elements
Apogee altitude
506.319 km
Perigee altitude
485.111 km
Semi-major axis
6,873.852 km
Eccentricity
0.0015427
Inclination
97.6255°
RAAN
234.0411°
Arg. of periapsis
204.6472°
True anomaly
155.47635°
Mean anomaly
155.4029°
Eccentric anomaly
155.43964°
Mean motion
3.8084 °/min
BSTAR
0.0010966
Orbital period
94.53 mins
Loading maneuver chart data...
Loading SW <> Apogee altitude chart data...
Loading historical data...
Loading historical data...
Loading historical data...
Loading historical data...
Loading historical data...
Loading historical data...
Loading historical data...

OBJECT F Visibility forecast

Observer location: undefined°, undefined°

Span
Click to sort rows by Start time (UTC) header in descending order
Start Az.
Max El. time (UTC)
Max El. Az.
Max El.
End time (UTC)
End Az.
6 mins2025-04-19 21:31:06.686Z357.475° N2025-04-19 21:34:06.686Z305.064° NW32.742°2025-04-19 21:37:06.686Z220.548° SW
5 mins2025-04-20 08:09:06.686Z155.192° SSE2025-04-20 08:11:06.686Z101.07° ESE42.811°2025-04-20 08:14:06.686Z354.488° N
5 mins2025-04-20 21:12:06.686Z8.732° NNE2025-04-20 21:14:06.686Z347.712° N43.059°2025-04-20 21:17:06.686Z197.498° SSW
|